"Pseudo-MPEC" for P11dgX7

Created 2021 Mar 4 16:07:08 UT using Find_Orb

Click here for an explanation of pseudo-MPECs

 
 Astrometry: 
     P11dgX7  C2021 02 12G/nA)!hAstrometry?g1BtP9!redacted;@=qpArn@QHLro5hc1qF51
     P11dgX7  C2021 02 12?yj,d-)^7B9WH1ts'olO5Cw;oFQ^/U(o5Z-rD:2!bCO5click$D'F51
     P11dgX7  C2021 02 12SZ%*utP29vBBlB1OOxMChere0N_S$tforWHVd\explanation[HXF51

Station data:
(F51) Pan-STARRS 1, Haleakala  (N20.707235 W156.255910)  US/Hawaii.
   Observers N. Primak, A. Schultz, S. Watters, J. Thiel, T. Goggia. Measurer
   PS1 Science Consortium. 1.8-m Ritchey-Chrétien + CCD.

Orbital elements:  P11dgX7
   Perihelion 2021 Dec 24.409611 +/- 185.231 TT =  9:49:50 (JD 2459572.909611)
Epoch 2021 Feb 12.0 TT = JDT 2459257.5   Earth MOID: 0.6600   AutoNEOCP
M 231.14369619 +/- 84.647095        (J2000 ecliptic)
n   0.40853638 +/- 0.254319         Peri.  147.88316 +/- 97.571374
a   1.79879726 +/- 0.746502         Node   131.32853 +/- 39.100187
e   0.0762317 +/- 0.281126          Incl.   22.20949 +/- 27.160273
P   2.41/881.18d           H 21.0   G  0.15   U 11.8  SR
q 1.66167180 +/- 0.726457    Q 1.93592272 +/- 35.1393
From 3 observations 2021 Feb. 12 (35.2 min); mean residual 0".05
Residuals in arcseconds: 
210212 F51  .04+  .02+    210212 F51  .09-  .03-    210212 F51  .04+  .02+    

Ephemerides (geocentric):
Date (UTC) HH   RA              Dec         delta   r     elong  mag " sig PA
---- -- -- --  -------------   -----------  ------ ------ -----  --- ---- ---
2021 03 04 16  09 31 52.710   +30 19 44.95  .95887 1.8755 148.1 23.2  33d 163
2021 03 04 17  09 31 50.397   +30 20 24.94  .95907 1.8755 148.1 23.2  33d 163
2021 03 04 18  09 31 48.087   +30 21 04.87  .95927 1.8755 148.0 23.2  33d 163
2021 03 04 19  09 31 45.781   +30 21 44.75  .95947 1.8754 148.0 23.2  33d 163
2021 03 04 20  09 31 43.477   +30 22 24.58  .95967 1.8754 147.9 23.2  33d 163
2021 03 04 21  09 31 41.177   +30 23 04.35  .95987 1.8754 147.9 23.2  34d 163
2021 03 04 22  09 31 38.879   +30 23 44.07  .96008 1.8754 147.8 23.2  34d 163
2021 03 04 23  09 31 36.585   +30 24 23.73  .96028 1.8753 147.8 23.2  34d 163
2021 03 05 00  09 31 34.295   +30 25 03.34  .96048 1.8753 147.7 23.2  34d 163
2021 03 05 01  09 31 32.007   +30 25 42.89  .96068 1.8753 147.7 23.2  34d 163
2021 03 05 02  09 31 29.723   +30 26 22.39  .96089 1.8752 147.6 23.2  34d 163
2021 03 05 03  09 31 27.442   +30 27 01.83  .96109 1.8752 147.6 23.2  34d 163
2021 03 05 04  09 31 25.164   +30 27 41.22  .96129 1.8752 147.5 23.2  34d 163
2021 03 05 05  09 31 22.890   +30 28 20.56  .96150 1.8751 147.5 23.2  34d 163
2021 03 05 06  09 31 20.619   +30 28 59.84  .96170 1.8751 147.4 23.2  34d 163
2021 03 05 07  09 31 18.351   +30 29 39.06  .96191 1.8751 147.4 23.2  34d 163
2021 03 05 08  09 31 16.086   +30 30 18.23  .96211 1.8750 147.3 23.2  34d 163
2021 03 05 09  09 31 13.825   +30 30 57.35  .96232 1.8750 147.3 23.2  34d 163
2021 03 05 10  09 31 11.567   +30 31 36.41  .96253 1.8750 147.2 23.2  34d 164
2021 03 05 11  09 31 09.312   +30 32 15.41  .96273 1.8749 147.2 23.2  34d 164
2021 03 05 12  09 31 07.060   +30 32 54.37  .96294 1.8749 147.1 23.2  34d 164
2021 03 05 13  09 31 04.812   +30 33 33.26  .96315 1.8749 147.1 23.2  34d 164
2021 03 05 14  09 31 02.567   +30 34 12.11  .96335 1.8748 147.0 23.2  34d 164
2021 03 05 15  09 31 00.326   +30 34 50.89  .96356 1.8748 147.0 23.2  34d 164
2021 03 05 16  09 30 58.088   +30 35 29.62  .96377 1.8748 146.9 23.2  34d 164
2021 03 05 17  09 30 55.853   +30 36 08.30  .96398 1.8747 146.9 23.2  34d 164
2021 03 05 18  09 30 53.622   +30 36 46.93  .96419 1.8747 146.8 23.2  34d 164
2021 03 05 19  09 30 51.393   +30 37 25.49  .96440 1.8747 146.8 23.2  34d 164
2021 03 05 20  09 30 49.169   +30 38 04.01  .96461 1.8746 146.7 23.2  34d 164
2021 03 05 21  09 30 46.947   +30 38 42.47  .96482 1.8746 146.7 23.2  34d 164
2021 03 05 22  09 30 44.729   +30 39 20.87  .96503 1.8746 146.6 23.2  34d 164
2021 03 05 23  09 30 42.515   +30 39 59.22  .96524 1.8745 146.6 23.2  34d 164
2021 03 06 00  09 30 40.304   +30 40 37.51  .96545 1.8745 146.5 23.2  34d 164
2021 03 06 01  09 30 38.096   +30 41 15.75  .96566 1.8745 146.5 23.2  34d 164
2021 03 06 02  09 30 35.891   +30 41 53.94  .96587 1.8744 146.4 23.2  34d 165
2021 03 06 03  09 30 33.690   +30 42 32.06  .96608 1.8744 146.4 23.2  34d 165
2021 03 06 04  09 30 31.493   +30 43 10.14  .96630 1.8744 146.3 23.2  34d 165
2021 03 06 05  09 30 29.299   +30 43 48.16  .96651 1.8743 146.3 23.2  34d 165
2021 03 06 06  09 30 27.108   +30 44 26.12  .96672 1.8743 146.2 23.2  34d 165
2021 03 06 07  09 30 24.921   +30 45 04.03  .96694 1.8743 146.2 23.2  34d 165
2021 03 06 08  09 30 22.737   +30 45 41.89  .96715 1.8742 146.1 23.2  34d 165
2021 03 06 09  09 30 20.557   +30 46 19.69  .96737 1.8742 146.1 23.2  34d 165
2021 03 06 10  09 30 18.380   +30 46 57.43  .96758 1.8742 146.0 23.2  35d 165
2021 03 06 11  09 30 16.206   +30 47 35.12  .96779 1.8741 146.0 23.2  35d 165
2021 03 06 12  09 30 14.036   +30 48 12.76  .96801 1.8741 145.9 23.2  35d 165
2021 03 06 13  09 30 11.870   +30 48 50.34  .96823 1.8741 145.9 23.2  35d 165
2021 03 06 14  09 30 09.707   +30 49 27.86  .96844 1.8740 145.8 23.2  35d 165
2021 03 06 15  09 30 07.547   +30 50 05.33  .96866 1.8740 145.8 23.2  35d 165